"Pseudo-MPEC" for P20Y6VU

Created 2020 Mar 30 13:07:12 UT using Find_Orb

Click here for an explanation of pseudo-MPECs

 
 Astrometry: 
     P20Y6VU  C2014 10 28-BfR[+_`ZuKSLS2V_r0OOfD+AU#s./;t;Pk`OX\B2nRq@bI(y.#TF51
     P20Y6VU  C2014 10 28eY'tBvH^MN^h44Gp03?b^9$8=`7%=EEvL?IgPp;H8O\9yFLr.dffF51
     P20Y6VU  C2014 10 28#)Lnbin-e@)CH,MGuVP1p)WvV?;B+%WfAZOeUUIR#/u0U,:gVCD,F51
     P20Y6VU  C2014 10 28SdGOI?.',P'@%GO4p\lYgiqM)^)]6Z!]cJ#rQcH3]'4go^Ia=e),F51
     P20Y6VU  C2015 01 30\Viu:oXP)Ygm]D?iaAEH6fqt5Ykw6rf125C?V^fAstrometry:(_F51
     P20Y6VU  C2015 01 30)D_i(uUyID2:xNk4G13FCP?Th+npjw:J\]R1lR46d(hms#:*W'*TF51
     P20Y6VU  C2015 02 011J.yUpSdJ5Wnc4_'Mti*4M;pXp'($'7[Q74;$=M$f6m%=c,8SkZ,F51
     P20Y6VU  C2015 02 01v8V$@[+2p\#*Q?.Ilgi\ZnwTl*Ere,I#b'xwf0mH3xS-`S'k6;9jF51
     P20Y6VU  C2015 02 019n\Cm..yWfb8d_$NSa+ZHE6M\8Bu([CY7LA6^-RvK8!yE[;P;cO,F51
     P20Y6VU  C2015 03 25eVhWyc94-WGD*i4BPgrV%MU$/J.Jh]V-:xembX'I6OGtr[HhX'h+F51
     P20Y6VU  C2015 03 25K89OZQ`hE^S8F1sI!putRkwTZ/\vwA!65Pp@68euE#u1vE2SobMGF51
     P20Y6VU  C2015 03 25-$Vg48=e3!oLB_-Zdd0u;/-n$IuLWT(DBt-aZcd)5`i-n#q23lMBF51
     P20Y6VU  C2015 03 25TAG#qMZK/Ym]OD/cbmRI6redacted;:q91)'$1#2,$5#QJ(:]Ow2F51
     P20Y6VU  C2016 09 22*vuG8hT;$nfr%Jy][VoA[_yfc'[FW2Xa.-.!vpT0]6a%sB6C=q(7F51
     P20Y6VU  C2016 09 22kDr7U+IpmVXH,u?;+Auc!o_78btsyeqLVWYv$i.MP]lkCH21ggJXF51
     P20Y6VU  C2016 09 22Y@SStJFNPW-[wi.MLroH^43LU7*5%hqyavE5LVw-7NvFUHFMroe`F51
     P20Y6VU  C2016 09 22\k;tvPlU?cTZ9Sof/FMFtIFOKmVCB)x3ELcOrH\L(uYR;BxhCM7iF51
     P20Y6VU  C2016 10 20V=63`R/D+vCW:rv2uX9#SLUoo.7l[)[7Fr$,$g*/dMgX=Duu]R(dF51
     P20Y6VU  C2016 10 20.QYpi%Qr:Br2G$k4cR6A0j^/e3lpVGivjH'cI4uJm@_VAkFV7!eVF51
     P20Y6VU  C2016 10 20hWN^h.`1^PZemCi[r9N9x^4j_PPQe`tv5XdwP\Id!p-jQY^Zr\r`F51
     P20Y6VU  C2016 10 20W7-BEnB]O`Zm6pr2aAxm7pTq(ER5Aw]8?tg/4p%QqQ=2H5SHg!9^F51
     P20Y6VU  C2018 05 21/1@.=/O:mg4A.nPCdVN5akH/[U2H0K`?6'S6Wn]x\$-PUP:e$PLIF51
     P20Y6VU  C2018 05 21R6*-HSrM9kdtsq0P?m(!q5Q?FkwPrG(b+id^a7RSULL'6VF)8HT(F51
     P20Y6VU  C2018 05 21S[GyEOxF1`Q!J6BIKHuR^+ygx!u.VM.7L75r#PJXT:tp\DB*sNhYF51
     P20Y6VU  C2018 06 12M/W(*]7;dyRkjAcmKgK[P=DL!qclick!CP(,a1kxH`=Gl.7here3F51
     P20Y6VU  C2018 06 12K__90?tdol.vGZwE0Y+LjvJ86g9(O+!jUnTNB?wh'sjaJiL*txNKF51
     P20Y6VU  C2018 06 12HAajZj??,t/;Bie]f-d:wLdfRH;PwfRMvR=pr#j[r3yaR\(_!B7'F51
     P20Y6VU  C2020 02 04`#Y/c`^;$2l0)b(-,dYs=AKTfor#eUy6_YInR2T6'2sC,5%mBCL;F51
     P20Y6VU  C2020 03 23aGg;J,JI.`/A/WsufdRfPure!e-xlI_9jdv$g^dP%M.SN=%)/VVtF52
     P20Y6VU  C2020 03 231u\/g_o[OIy%Nf=l=Bt%Ov-lU3PdC,9.[u#Zg^cj]BrI_?@'9E1iF52
     P20Y6VU  C2020 03 23,#E@-/=mLOwDR116N!MpNvUm=7`HOI%tC3^:Z`f/80;#u+RQXH%UF52
     P20Y6VU  C2020 03 23XrLIXBKaEP\B=@]xZIar4#v/.N`AP?PbkV1#x6exgG@^A#\!'DN;F52
     P20Y6VU  C2020 03 24.11202 13 43 43.78 +43 08 22.7    ~3O3M 20.1 VVNEOCP033
     P20Y6VU  C2020 03 24.11821 13 43 43.26 +43 08 24.9    ~3O3M 20.3 VVNEOCP033
     P20Y6VU  C2020 03 24.12179 13 43 42.96 +43 08 26.6    ~3O3M 20.2 VVNEOCP033
     P20Y6VU ^C2020 03 24.56846813 43 07.988+43 11 40.90   ~3OHq 21.27GVNEOCP568
     P20Y6VU ^C2020 03 24.56942413 43 07.906+43 11 41.29   ~3OHq 21.16GVNEOCP568
     P20Y6VU ^C2020 03 24.57037513 43 07.831+43 11 41.70   ~3OHq 21.33GVNEOCP568
     P20Y6VU KC2020 03 30!J$cR?*\^ZyPjdSi!gB?a`ecFajan?%^d6Cx5siXUyyw`#Y%@uK'858
     P20Y6VU KC2020 03 30?fw3,#3jgIge9:TmAfH@?E8ZHq_ileJ1+Hxk%e\li#1(@u9,C3B%858
     P20Y6VU KC2020 03 30`jwy3Cd8/J:-;?sQebUvDMps@#p-)82C\/BpSabb1ILAvX,83\\:H21
     P20Y6VU KC2020 03 30SU40%Am=Sj=2JJM2f^45e/2CoJ0Qa$^p8HvYo9f_m)r=-EOs^=c#H21
     P20Y6VU KC2020 03 30LuAydM`heWZh-m]FYw:=o1Jn;x,Xac_6cZ5MaPo'aOonB,n)bsRtH21
     P20Y6VU KC2020 03 30w!5u-G\q`r4Abb\8WcS-2G)?o_HXX!RVA+chh4):I$e`nB$G)6H3H36
     P20Y6VU KC2020 03 30/rXv+3(;iIF,khAt]Dx9/9.+=/5-2=*NOZ3bbNQeO70qX+TV]nePH36
     P20Y6VU KC2020 03 30Vqm?`!Qr[DG;X/W,:v5+--dla@O/`Ze1M_explanationK(6ALe!H36

Station data:
(033) Karl Schwarzschild Observatory, Tautenburg  (N50.980140 E11.711240)
   Germany. 1.3-m Schmidt.
(568) Mauna Kea  (N19.826116 W155.472200)  US/Hawaii.
(858) Tebbutt Observatory, Edgewood  (N35.093872 W106.220000)  US/New Mexico.
(F51) Pan-STARRS 1, Haleakala  (N20.707235 W156.255910)  US/Hawaii.
   Observers N. Primak, A. Schultz, S. Watters, J. Thiel, T. Goggia. Measurer
   PS1 Science Consortium. 1.8-m Ritchey-Chrétien + CCD.
(F52) Pan-STARRS 2, Haleakala  (N20.707384 W156.255910)  US/Hawaii. 1.8-m
   Ritchey-Chrétien + CCD.
(H21) Astronomical Research Observatory, Westfield  (N39.483057 W87.968270)
   US/Illinois. 0.76-m f/3.0 astrograph + CCD.
(H36) Sandlot Observatory, Scranton  (N38.797693 W95.706400)  US/Kansas.
   Observer G. Hug. 0.56-m reflector + CCD.

Orbital elements:  P20Y6VU
   Perihelion 2019 Apr 7.185170 +/- 0.00159 TT =  4:26:38 (JD 2458580.685170)
Epoch 2020 Mar 30.0 TT = JDT 2458938.5   Earth MOID: 0.7852   AutoNEOCP
M 146.62207971 +/- 0.0006           (J2000 ecliptic)
n   0.40977082 +/- 2.36e-8          Peri.  308.83314 +/- 0.0006
a   1.79518284 +/- 6.9e-8           Node    88.01551 +/- 0.000052
e   0.0215595 +/- 1.83e-7           Incl.   24.73906 +/- 0.000015
P   2.41/878.52d           H 19.6   G  0.15   U  1.1  
q 1.75647959 +/- 3.61e-7    Q 1.83388609 +/- 3.07e-7
From 46 observations 2014 Oct. 28-2020 Mar. 30; mean residual 0".34
Residuals in arcseconds: 
141028 F51  .16+  .29-    160922 F51  .22+  .14-    200324 033  .04-  .11-    
141028 F51  .39+  .21-    161020 F51  .05+  .19-    200324 033  .27-  .51-    
141028 F51  .07-  .22+    161020 F51  .04+  .03+    200324 033  .40-  .32-    
141028 F51  .21+  .32-    161020 F51  .20-  .17-    200324 568  .06-  .11+    
150130 F51  .01+  .15+    161020 F51  .03+  .14-    200324 568  .09-  .12+    
150130 F51  .23-  .59+    180521 F51  .05+  .30+    200324 568  .04-  .15+    
150201 F51  .09-  .02-    180521 F51  .17+  .24-    200330 858  .12-  .82-    
150201 F51  .11+  .00     180521 F51  .01-  .07+    200330 858  .09-  .50+    
150201 F51  .12+  .05+    180612 F51  .05+  .02-    200330 H21  .18-  .44-    
150325 F51  .03-  .06-    180612 F51  .04-  .16-    200330 H21  .47-  .36-    
150325 F51  .09+  .02+    180612 F51  .08+  .15+    200330 H21  .33-  .40-    
150325 F51  .01-  .09-    200204 F51  .09-  .42+    200330 H36  .75+  1.1-    
150325 F51  .04-  .06-    200323 F52  .14-  .17-    200330 H36  1.4+  .07+    
160922 F51  .04-  .05-    200323 F52  .21-  .22+    200330 H36  .38-  1.6+    
160922 F51  .29+  .10+    200323 F52  .32+  .15+    
160922 F51  .01+  .02-    200323 F52  .23-  .14+    

Ephemerides (geocentric):
Date (UTC) HH   RA              Dec         delta   r     elong  mag " sig PA
---- -- -- --  -------------   -----------  ------ ------ -----  --- ---- ---
2020 03 30 13  13 34 46.965   +43 41 32.98  1.0131 1.8278 130.6 22.0 .013  42
2020 03 30 14  13 34 43.286   +43 41 40.50  1.0132 1.8278 130.6 22.0 .013  42
2020 03 30 15  13 34 39.605   +43 41 47.96  1.0132 1.8278 130.6 22.0 .013  42
2020 03 30 16  13 34 35.921   +43 41 55.34  1.0132 1.8278 130.6 22.0 .013  42
2020 03 30 17  13 34 32.236   +43 42 02.66  1.0133 1.8279 130.6 22.0 .013  42
2020 03 30 18  13 34 28.549   +43 42 09.90  1.0133 1.8279 130.6 22.0 .013  42
2020 03 30 19  13 34 24.860   +43 42 17.07  1.0134 1.8279 130.6 22.0 .013  42
2020 03 30 20  13 34 21.169   +43 42 24.17  1.0134 1.8279 130.6 22.0 .013  42
2020 03 30 21  13 34 17.476   +43 42 31.20  1.0134 1.8279 130.5 22.0 .013  42
2020 03 30 22  13 34 13.781   +43 42 38.15  1.0135 1.8279 130.5 22.0 .013  42
2020 03 30 23  13 34 10.085   +43 42 45.04  1.0135 1.8279 130.5 22.0 .013  42
2020 03 31 00  13 34 06.386   +43 42 51.85  1.0135 1.8279 130.5 22.0 .013  42
2020 03 31 01  13 34 02.686   +43 42 58.59  1.0136 1.8279 130.5 22.0 .013  42
2020 03 31 02  13 33 58.984   +43 43 05.26  1.0136 1.8279 130.5 22.0 .013  42
2020 03 31 03  13 33 55.280   +43 43 11.86  1.0137 1.8279 130.5 22.0 .013  42
2020 03 31 04  13 33 51.574   +43 43 18.39  1.0137 1.8279 130.5 22.0 .013  42
2020 03 31 05  13 33 47.866   +43 43 24.84  1.0137 1.8279 130.5 22.0 .013  42
2020 03 31 06  13 33 44.157   +43 43 31.23  1.0138 1.8279 130.5 22.0 .013  42
2020 03 31 07  13 33 40.446   +43 43 37.54  1.0138 1.8279 130.5 22.0 .013  42
2020 03 31 08  13 33 36.733   +43 43 43.78  1.0138 1.8279 130.5 22.0 .013  42
2020 03 31 09  13 33 33.018   +43 43 49.95  1.0139 1.8279 130.5 22.0 .013  42
2020 03 31 10  13 33 29.302   +43 43 56.04  1.0139 1.8280 130.5 22.0 .013  42
2020 03 31 11  13 33 25.583   +43 44 02.07  1.0140 1.8280 130.5 22.0 .013  42
2020 03 31 12  13 33 21.864   +43 44 08.02  1.0140 1.8280 130.5 22.0 .013  42
2020 03 31 13  13 33 18.142   +43 44 13.90  1.0141 1.8280 130.5 22.0 .013  42
2020 03 31 14  13 33 14.419   +43 44 19.71  1.0141 1.8280 130.5 22.0 .013  42
2020 03 31 15  13 33 10.694   +43 44 25.45  1.0141 1.8280 130.4 22.0 .013  42
2020 03 31 16  13 33 06.967   +43 44 31.12  1.0142 1.8280 130.4 22.0 .013  41
2020 03 31 17  13 33 03.239   +43 44 36.71  1.0142 1.8280 130.4 22.0 .013  41
2020 03 31 18  13 32 59.509   +43 44 42.23  1.0143 1.8280 130.4 22.0 .013  41
2020 03 31 19  13 32 55.777   +43 44 47.68  1.0143 1.8280 130.4 22.0 .013  41
2020 03 31 20  13 32 52.044   +43 44 53.06  1.0143 1.8280 130.4 22.0 .013  41
2020 03 31 21  13 32 48.309   +43 44 58.36  1.0144 1.8280 130.4 22.0 .013  41
2020 03 31 22  13 32 44.572   +43 45 03.59  1.0144 1.8280 130.4 22.0 .013  41
2020 03 31 23  13 32 40.834   +43 45 08.76  1.0145 1.8280 130.4 22.0 .013  41
2020 04 01 00  13 32 37.095   +43 45 13.84  1.0145 1.8280 130.4 22.0 .014  41
2020 04 01 01  13 32 33.354   +43 45 18.86  1.0146 1.8280 130.4 22.0 .014  41
2020 04 01 02  13 32 29.611   +43 45 23.80  1.0146 1.8281 130.4 22.0 .014  41
2020 04 01 03  13 32 25.866   +43 45 28.68  1.0147 1.8281 130.4 22.0 .014  41
2020 04 01 04  13 32 22.121   +43 45 33.48  1.0147 1.8281 130.4 22.0 .014  41
2020 04 01 05  13 32 18.373   +43 45 38.20  1.0147 1.8281 130.4 22.0 .014  41
2020 04 01 06  13 32 14.624   +43 45 42.86  1.0148 1.8281 130.4 22.0 .014  41
2020 04 01 07  13 32 10.874   +43 45 47.44  1.0148 1.8281 130.4 22.1 .014  41
2020 04 01 08  13 32 07.122   +43 45 51.95  1.0149 1.8281 130.3 22.1 .014  41
2020 04 01 09  13 32 03.369   +43 45 56.39  1.0149 1.8281 130.3 22.1 .014  41
2020 04 01 10  13 31 59.614   +43 46 00.76  1.0150 1.8281 130.3 22.1 .014  41
2020 04 01 11  13 31 55.858   +43 46 05.05  1.0150 1.8281 130.3 22.1 .014  41
2020 04 01 12  13 31 52.100   +43 46 09.27  1.0151 1.8281 130.3 22.1 .014  41